K7UHP Weather Reports


time (UTC)temp
C
wind
direction
speed
KPH
gust
KPH
rain 1hr
cm
rain 24hr
cm
rain mn
cm
humidity
%
barometer
mb
20260502210218 22 300 9.7 12.9 0.00 0.00 0.00 14 1018.2
20260502205217 21 307 11.3 12.9 0.00 0.00 0.00 16 1018.3
20260502204216 22 286 16.1 32.2 0.00 0.00 0.00 17 1018.4
20260502203215 22 296 4.8 9.7 0.00 0.00 0.00 13 1018.4
20260502202214 22 272 14.5 19.3 0.00 0.00 0.00 12 1018.6
20260502201214 22 284 12.9 20.9 0.00 0.00 0.00 14 1018.6
20260502200213 22 267 8.0 11.3 0.00 0.00 0.00 13 1018.8
20260502195212 22 145 4.8 9.7 0.00 0.00 0.00 11 1018.8
20260502194211 22 204 3.2 4.8 0.00 0.00 0.00 12 1018.9
20260502193211 21 279 9.7 11.3 0.00 0.00 0.00 13 1018.9
20260502192210 22 281 3.2 9.7 0.00 0.00 0.00 14 1019.1
20260502191209 21 342 1.6 4.8 0.00 0.00 0.00 13 1019.3
20260502190208 21 182 3.2 4.8 0.00 0.00 0.00 17 1019.5
20260502185208 21 305 8.0 9.7 0.00 0.00 0.00 18 1019.6
20260502184207 20 260 0.0 0.0 0.00 0.00 0.00 18 1019.6
20260502183206 21 305 4.8 8.0 0.00 0.00 0.00 19 1019.8
20260502182205 20 253 0.0 11.3 0.00 0.00 0.00 19 1020.0
20260502181205 20 260 3.2 4.8 0.00 0.00 0.00 21 1020.1
20260502180204 20 282 1.6 11.3 0.00 0.00 0.00 22 1020.2
20260502170200 17 15 3.2 3.2 0.00 0.00 0.00 28 1020.6
20260502164158 17 305 4.8 8.0 0.00 0.00 0.00 30 1020.6
20260502163157 16 275 1.6 4.8 0.00 0.00 0.00 33 1020.6
20260502162157 16 271 3.2 4.8 0.00 0.00 0.00 34 1020.6
20260502161156 16 294 4.8 4.8 0.00 0.00 0.00 34 1020.6
20260502160155 16 280 1.6 4.8 0.00 0.00 0.00 35 1020.6
20260502152152 14 11 3.2 4.8 0.00 0.00 0.00 33 1020.6
20260502151151 13 304 3.2 4.8 0.00 0.00 0.00 34 1020.7
20260502150151 13 337 3.2 4.8 0.00 0.00 0.00 38 1020.7
20260502130140 7 52 0.0 1.6 0.00 0.00 0.00 52 1020.3
20260502123138 7 202 0.0 1.6 0.00 0.00 0.00 52 1020.1
20260502122137 8 162 0.0 1.6 0.00 0.00 0.00 48 1020.0
20260502121136 7 113 1.6 1.6 0.00 0.00 0.00 54 1020.1
20260502120135 7 133 1.6 3.2 0.00 0.00 0.00 54 1020.0
20260502115134 7 138 0.0 1.6 0.00 0.00 0.00 55 1020.1
20260502114133 8 191 0.0 1.6 0.00 0.00 0.00 54 1020.1
20260502113132 8 86 0.0 0.0 0.00 0.00 0.00 54 1020.1
20260502112131 7 90 0.0 0.0 0.00 0.00 0.00 54 1020.1
20260502111130 8 53 3.2 3.2 0.00 0.00 0.00 54 1020.1
20260502110130 8 274 0.0 0.0 0.00 0.00 0.00 54 1020.3
20260502105129 8 281 1.6 3.2 0.00 0.00 0.00 54 1020.3
20260502104128 8 96 3.2 4.8 0.00 0.00 0.00 51 1020.2
20260502103127 8 123 0.0 1.6 0.00 0.00 0.00 52 1020.2
20260502102126 8 131 1.6 1.6 0.00 0.00 0.00 53 1020.2
20260502101125 8 127 1.6 3.2 0.00 0.00 0.00 52 1020.0
20260502100124 8 138 1.6 3.2 0.00 0.00 0.00 52 1020.0
20260502091120 9 182 0.0 0.0 0.00 0.00 0.00 48 1019.9
20260502090119 9 248 0.0 1.6 0.00 0.00 0.00 50 1019.8
20260502071110 10 345 0.0 1.6 0.00 0.00 0.00 49 1019.9
20260502070109 10 77 0.0 0.0 0.00 0.00 0.00 48 1019.9
20260502065109 11 286 0.0 0.0 0.00 0.00 0.00 48 1019.9
20260502064108 11 242 0.0 1.6 0.00 0.00 0.00 45 1019.9
20260502063107 11 233 0.0 0.0 0.00 0.00 0.00 45 1019.8
20260502062106 11 237 0.0 0.0 0.00 0.00 0.00 46 1019.9
20260502061105 12 139 0.0 0.0 0.00 0.00 0.00 41 1019.9
20260502060104 12 162 1.6 3.2 0.00 0.00 0.00 41 1019.8
20260502055103 12 129 0.0 1.6 0.00 0.00 0.00 39 1019.8
20260502054102 12 118 3.2 3.2 0.00 0.00 0.00 41 1019.7
20260502053102 13 142 1.6 3.2 0.00 0.00 0.00 40 1019.8
20260502052101 13 137 3.2 4.8 0.00 0.00 0.00 39 1019.7
20260502051100 13 100 1.6 4.8 0.00 0.00 0.00 36 1019.6
20260502050059 13 107 1.6 3.2 0.00 0.00 0.00 36 1019.7
20260502045059 13 92 3.2 4.8 0.00 0.00 0.00 37 1019.7
20260502044058 13 83 1.6 4.8 0.00 0.00 0.00 38 1019.7
20260502043057 13 89 3.2 4.8 0.00 0.00 0.00 39 1019.7
20260502042056 13 88 3.2 4.8 0.00 0.00 0.00 43 1019.7
20260502041055 13 107 3.2 3.2 0.00 0.00 0.00 42 1019.6
20260502040055 14 132 1.6 3.2 0.00 0.00 0.00 41 1019.5
20260502035054 14 132 1.6 3.2 0.00 0.00 0.00 40 1019.4
20260502034053 14 91 1.6 3.2 0.00 0.00 0.00 39 1019.4
20260502033052 14 83 0.0 1.6 0.00 0.00 0.00 40 1019.2
20260502032051 15 75 0.0 0.0 0.00 0.00 0.00 40 1019.1
20260502031051 15 63 0.0 4.8 0.00 0.00 0.00 39 1018.9
20260502030050 15 91 1.6 3.2 0.00 0.00 0.00 38 1018.8
20260502025049 16 87 1.6 3.2 0.00 0.00 0.00 36 1018.8
20260502024048 16 0 1.6 1.6 0.00 0.00 0.00 35 1018.7
20260502023047 16 339 3.2 4.8 0.00 0.00 0.00 34 1018.7
20260502022047 16 8 4.8 8.0 0.00 0.00 0.00 33 1018.6
20260502021046 17 358 3.2 4.8 0.00 0.00 0.00 35 1018.6
20260502020045 17 39 4.8 9.7 0.00 0.00 0.00 35 1018.5
20260502015044 17 345 1.6 3.2 0.00 0.00 0.00 34 1018.4
20260502014043 17 293 11.3 12.9 0.00 0.00 0.00 32 1018.3
20260502013043 17 269 11.3 19.3 0.00 0.00 0.00 34 1018.3
20260502012042 18 276 12.9 19.3 0.00 0.00 0.00 33 1018.2
20260502011041 18 271 9.7 12.9 0.00 0.00 0.00 31 1018.2
20260502010041 18 284 12.9 16.1 0.00 0.00 0.00 33 1018.2
20260502005040 18 290 12.9 16.1 0.00 0.00 0.00 32 1018.1
20260502004039 18 286 16.1 19.3 0.00 0.00 0.00 32 1018.2
20260502003038 18 287 19.3 24.1 0.00 0.00 0.00 31 1018.2
20260502002038 18 285 16.1 22.5 0.00 0.00 0.00 30 1018.3
20260502001037 18 282 16.1 22.5 0.00 0.00 0.00 32 1018.3
20260502000036 18 286 16.1 20.9 0.00 0.00 0.00 32 1018.4
20260501235035 18 287 20.9 27.4 0.00 0.00 0.00 31 1018.5
20260501234035 18 290 14.5 19.3 0.00 0.00 0.00 31 1018.4
20260501233034 18 289 16.1 22.5 0.00 0.00 0.00 30 1018.5
20260501232033 18 280 14.5 25.7 0.00 0.00 0.00 31 1018.4
20260501231032 18 284 14.5 19.3 0.00 0.00 0.00 31 1018.6
20260501230031 18 286 19.3 19.3 0.00 0.00 0.00 30 1018.6
20260501225031 18 299 19.3 22.5 0.00 0.00 0.00 30 1018.7
20260501224030 18 273 20.9 24.1 0.00 0.00 0.00 32 1018.7
20260501223029 18 290 19.3 24.1 0.00 0.00 0.00 29 1018.9
20260501222029 18 285 12.9 19.3 0.00 0.00 0.00 31 1019.0
20260501221028 18 295 12.9 19.3 0.00 0.00 0.00 31 1019.1
20260501220028 18 303 19.3 22.5 0.00 0.00 0.00 30 1019.1
20260501215027 17 296 19.3 24.1 0.00 0.00 0.00 28 1019.3
20260501214026 17 301 16.1 22.5 0.00 0.00 0.00 28 1019.3
20260501213025 17 275 19.3 19.3 0.00 0.00 0.00 28 1019.3
20260501212025 17 299 20.9 25.7 0.00 0.00 0.00 28 1019.3
20260501211024 17 287 19.3 20.9 0.00 0.00 0.00 26 1019.4